When you browse on this site, cookies collect data to enhance your experience and personalize the content and advertising you see.
Visit our Privacy Policy to learn more. By continuing to use the site, you agree to this use of cookies and data.
  • In Czech Republic
  • List of Countries
  • For 7 days
  • Water Temperature
  • Weather Map
  • Weather Widgets
  • user-avatar
    Login

    Hourly Weather Ischgl

    Today, 15 November, Friday

    Time Temperature Precipitation Wind Pressure Humidity
    00:00 -14°C° 0.1 mm 5 mps 558 mmHg 87%
    01:00 -13°C° 0 mm 5 mps 559 mmHg 90%
    02:00 -12°C° 0.4 mm 5 mps 559 mmHg 91%
    03:00 -12°C° 0.4 mm 5 mps 558 mmHg 91%
    04:00 -11°C° 0.4 mm 5 mps 558 mmHg 91%
    05:00 -10°C° 1 mm 5 mps 558 mmHg 91%
    06:00 -9°C° 1 mm 4 mps 558 mmHg 92%
    07:00 -9°C° 1 mm 4 mps 558 mmHg 92%
    08:00 -8°C° 2.2 mm 4 mps 559 mmHg 93%
    09:00 -6°C° 2.2 mm 3 mps 560 mmHg 94%
    10:00 -6°C° 2.2 mm 3 mps 561 mmHg 96%
    11:00 -5°C° 1.5 mm 3 mps 561 mmHg 96%
    12:00 -4°C° 1.5 mm 2 mps 562 mmHg 96%
    13:00 -4°C° 1.5 mm 2 mps 562 mmHg 96%
    14:00 -4°C° 1.1 mm 2 mps 562 mmHg 96%
    15:00 -5°C° 1.1 mm 2 mps 562 mmHg 96%
    16:00 -5°C° 1.1 mm 2 mps 562 mmHg 95%
    17:00 -6°C° 1.2 mm 2 mps 561 mmHg 96%
    18:00 -4°C° 1.2 mm 1 mps 561 mmHg 96%
    19:00 -6°C° 1.2 mm 1 mps 561 mmHg 96%
    20:00 -6°C° 0.7 mm 1 mps 561 mmHg 96%
    21:00 -7°C° 0.7 mm 1 mps 561 mmHg 96%
    22:00 -7°C° 0.7 mm 1 mps 561 mmHg 96%
    23:00 -7°C° 0.3 mm 1 mps 561 mmHg 95%

    Tomorrow, 16 November, Saturday

    Time Temperature Precipitation Wind Pressure Humidity
    00:00 -9°C° 0.3 mm 2 mps 561 mmHg 94%
    01:00 -9°C° 0.3 mm 2 mps 561 mmHg 93%
    02:00 -9°C° 0.1 mm 2 mps 561 mmHg 92%
    03:00 -10°C° 0.1 mm 2 mps 561 mmHg 91%
    04:00 -12°C° 0.1 mm 3 mps 561 mmHg 91%
    05:00 -12°C° 0.1 mm 3 mps 561 mmHg 91%
    06:00 -12°C° 0.1 mm 3 mps 562 mmHg 90%
    07:00 -11°C° 0.1 mm 4 mps 562 mmHg 90%
    08:00 -10°C° 0.1 mm 4 mps 563 mmHg 90%
    09:00 -9°C° 0.1 mm 4 mps 564 mmHg 90%
    10:00 -9°C° 0.1 mm 4 mps 565 mmHg 90%
    11:00 -7°C° 0 mm 3 mps 566 mmHg 88%
    12:00 -6°C° 0 mm 3 mps 566 mmHg 87%
    13:00 -6°C° 0 mm 3 mps 567 mmHg 85%
    14:00 -7°C° 0 mm 3 mps 566 mmHg 86%
    15:00 -8°C° 0 mm 3 mps 566 mmHg 87%
    16:00 -8°C° 0 mm 2 mps 565 mmHg 88%
    17:00 -9°C° 0 mm 2 mps 565 mmHg 87%
    18:00 -10°C° 0 mm 2 mps 565 mmHg 87%
    19:00 -12°C° 0 mm 3 mps 565 mmHg 86%
    20:00 -10°C° 0.1 mm 2 mps 565 mmHg 86%
    21:00 -10°C° 0.1 mm 2 mps 565 mmHg 86%
    22:00 -10°C° 0.1 mm 2 mps 565 mmHg 86%
    23:00 -9°C° 0.3 mm 2 mps 564 mmHg 87%

    Day after tomorrow, 17 November, Sunday

    Time Temperature Precipitation Wind Pressure Humidity
    00:00 -9°C° 0.3 mm 2 mps 564 mmHg 89%
    01:00 -8°C° 0.3 mm 1 mps 563 mmHg 91%
    02:00 -8°C° 1.7 mm 1 mps 563 mmHg 92%
    03:00 -8°C° 1.7 mm 1 mps 563 mmHg 94%
    04:00 -7°C° 1.7 mm 1 mps 562 mmHg 96%
    05:00 -7°C° 3.5 mm 1 mps 562 mmHg 96%
    06:00 -7°C° 3.5 mm 1 mps 561 mmHg 97%
    07:00 -7°C° 3.5 mm 1 mps 561 mmHg 97%
    08:00 -6°C° 3.8 mm 1 mps 561 mmHg 97%
    09:00 -6°C° 3.8 mm 1 mps 560 mmHg 96%
    10:00 -7°C° 3.8 mm 2 mps 560 mmHg 96%
    11:00 -6°C° 2.1 mm 2 mps 560 mmHg 97%
    12:00 -5°C° 2.1 mm 2 mps 561 mmHg 97%
    13:00 -4°C° 2.1 mm 2 mps 561 mmHg 98%
    14:00 -4°C° 1 mm 2 mps 561 mmHg 97%
    15:00 -4°C° 1 mm 2 mps 561 mmHg 97%
    16:00 -4°C° 1 mm 2 mps 561 mmHg 97%
    17:00 -5°C° 0.3 mm 2 mps 561 mmHg 96%
    18:00 -6°C° 0.3 mm 2 mps 560 mmHg 96%
    19:00 -7°C° 0.3 mm 2 mps 560 mmHg 95%
    20:00 -7°C° 0.5 mm 2 mps 561 mmHg 95%
    21:00 -7°C° 0.5 mm 2 mps 561 mmHg 94%
    22:00 -8°C° 0.5 mm 3 mps 562 mmHg 94%
    23:00 -9°C° 0.2 mm 3 mps 561 mmHg 94%

    18 November, Monday

    Time Temperature Precipitation Wind Pressure Humidity
    00:00 -10°C° 0.2 mm 3 mps 561 mmHg 93%
    01:00 -12°C° 0.2 mm 3 mps 561 mmHg 92%
    02:00 -13°C° 0 mm 3 mps 561 mmHg 92%
    03:00 -13°C° 0 mm 3 mps 561 mmHg 92%
    04:00 -14°C° 0 mm 3 mps 561 mmHg 91%
    05:00 -14°C° 0 mm 3 mps 561 mmHg 91%
    06:00 -14°C° 0 mm 3 mps 561 mmHg 90%
    07:00 -15°C° 0 mm 3 mps 561 mmHg 89%
    08:00 -12°C° 0 mm 2 mps 562 mmHg 89%
    09:00 -10°C° 0 mm 2 mps 563 mmHg 88%
    10:00 -9°C° 0 mm 2 mps 564 mmHg 87%
    11:00 -8°C° 0 mm 2 mps 565 mmHg 86%
    12:00 -7°C° 0 mm 2 mps 566 mmHg 84%
    13:00 -6°C° 0 mm 2 mps 566 mmHg 82%
    14:00 -7°C° 0 mm 2 mps 566 mmHg 85%
    15:00 -9°C° 0 mm 2 mps 565 mmHg 88%
    16:00 -10°C° 0 mm 2 mps 565 mmHg 91%
    17:00 -12°C° 0 mm 2 mps 565 mmHg 91%
    18:00 -13°C° 0 mm 2 mps 565 mmHg 91%
    19:00 -14°C° 0 mm 2 mps 565 mmHg 91%
    20:00 -15°C° 0 mm 2 mps 565 mmHg 90%
    21:00 -15°C° 0 mm 2 mps 564 mmHg 89%
    22:00 -16°C° 0 mm 2 mps 564 mmHg 89%
    23:00 -16°C° 0 mm 2 mps 565 mmHg 88%

    19 November, Tuesday

    Time Temperature Precipitation Wind Pressure Humidity
    00:00 -15°C° 0 mm 2 mps 565 mmHg 87%
    01:00 -15°C° 0 mm 2 mps 565 mmHg 86%
    02:00 -15°C° 0 mm 2 mps 565 mmHg 84%
    03:00 -13°C° 0 mm 1 mps 565 mmHg 82%
    04:00 -13°C° 0 mm 1 mps 565 mmHg 80%
    05:00 -14°C° 0 mm 1 mps 564 mmHg 78%
    06:00 -14°C° 0 mm 1 mps 564 mmHg 76%
    07:00 -15°C° 0 mm 1 mps 564 mmHg 74%
    08:00 -13°C° 0 mm 1 mps 565 mmHg 75%
    09:00 -10°C° 0 mm 1 mps 567 mmHg 75%
    10:00 -8°C° 0 mm 0 mps 568 mmHg 75%
    11:00 -7°C° 0 mm 0 mps 568 mmHg 75%
    12:00 -6°C° 0 mm 0 mps 568 mmHg 75%
    13:00 -4°C° 0 mm 1 mps 568 mmHg 75%
    14:00 -7°C° 0 mm 0 mps 568 mmHg 80%
    15:00 -8°C° 0 mm 0 mps 567 mmHg 85%
    16:00 -9°C° 0 mm 0 mps 566 mmHg 91%
    17:00 -10°C° 0 mm 0 mps 566 mmHg 90%
    18:00 -11°C° 0 mm 1 mps 565 mmHg 89%
    19:00 -11°C° 0 mm 1 mps 565 mmHg 88%
    20:00 -11°C° 0 mm 1 mps 565 mmHg 88%
    21:00 -11°C° 0 mm 1 mps 565 mmHg 87%
    22:00 -13°C° 0 mm 2 mps 566 mmHg 87%
    23:00 -13°C° 0 mm 2 mps 566 mmHg 87%

    20 November, Wednesday

    Time Temperature Precipitation Wind Pressure Humidity
    00:00 -13°C° 0 mm 2 mps 565 mmHg 86%
    01:00 -12°C° 0 mm 2 mps 565 mmHg 86%
    02:00 -13°C° 0 mm 2 mps 565 mmHg 86%
    03:00 -13°C° 0 mm 2 mps 565 mmHg 86%
    04:00 -13°C° 0 mm 2 mps 565 mmHg 87%
    05:00 -13°C° 0 mm 2 mps 565 mmHg 87%
    06:00 -13°C° 0 mm 2 mps 565 mmHg 88%
    07:00 -12°C° 0 mm 2 mps 565 mmHg 88%
    08:00 -10°C° 0 mm 2 mps 566 mmHg 89%
    09:00 -8°C° 0 mm 2 mps 567 mmHg 89%
    10:00 -7°C° 0 mm 2 mps 568 mmHg 90%
    11:00 -6°C° 0 mm 2 mps 568 mmHg 90%
    12:00 -5°C° 0 mm 2 mps 568 mmHg 90%
    13:00 -4°C° 0 mm 2 mps 569 mmHg 90%
    14:00 -5°C° 0 mm 2 mps 568 mmHg 90%
    15:00 -6°C° 0 mm 2 mps 567 mmHg 90%
    16:00 -7°C° 0 mm 2 mps 567 mmHg 89%
    17:00 -10°C° 0 mm 3 mps 566 mmHg 89%
    18:00 -12°C° 0 mm 3 mps 566 mmHg 89%
    19:00 -13°C° 0 mm 3 mps 565 mmHg 89%
    20:00 -13°C° 0 mm 3 mps 565 mmHg 85%
    21:00 -13°C° 0 mm 3 mps 566 mmHg 81%
    22:00 -13°C° 0 mm 3 mps 566 mmHg 78%
    23:00 -12°C° 0 mm 3 mps 566 mmHg 79%
    Show more